Flag for U.S.A. Weather past 2 weeks in New Haven, Connecticut, U.S.A.

Now
58 °F

Overcast.


Feels Like: 55 °F
Forecast: 44 / 61 °F
Wind: 14 mph from Northwest

Location: Tweed-New Haven Airport

Current Time: Apr 27, 2015 at 6:57:49 PM

Latest Report: Apr 27, 2015 at 5:53 PM


Visibility: 10 mi

Pressure: 29.59 "Hg

Humidity: 39%

Dew point: 33 °F

Location of New HavenLocation

Historic Weather in New Haven — Graph

°F

New Haven temperature yesterday

Maximum temperature yesterday: 57 °F (at 5:53 PM)
Minimum temperature yesterday: 35 °F (at 4:53 AM)
Average temperature yesterday: 49 °F

Past Weeks' High & Low Weather Summary

 TemperatureHumidityPressure
High69 °F (Apr 15, 1:53 PM)100% (Apr 20, 5:53 PM)30.50 "Hg (Apr 20, 5:53 PM)
Low33 °F (Apr 13, 3:53 AM)14% (Apr 15, 4:53 PM)29.55 "Hg (Apr 21, 3:53 AM)
Average50 °F59%29.94 "Hg
* Reported Apr 12 4:53 PM — Apr 27 4:53 PM, New Haven, Weather by CustomWeather, © 2015

Note: Actual official high and low records may vary slightly from our data, if they occured in-between our weather recording intervals... More about our weather records

Advertising

New Haven weather history for previous 24 hours

 ConditionsComfort  
Time TempWeatherWind HumidityBarometerVisibility
4:53 PM
Mon, Apr 27
59 °FOvercast.17 mph36%29.59 "Hg10 mi
3:53 PM59 °FOvercast.14 mph35%29.59 "Hg10 mi
2:53 PM58 °FMore clouds than sun.13 mph38%29.59 "Hg10 mi
1:53 PM58 °FPartly sunny.12 mph39%29.61 "Hg10 mi
12:53 PM58 °FOvercast.12 mph39%29.62 "Hg10 mi
11:53 AM58 °FBroken clouds.9 mph39%29.63 "Hg10 mi
10:53 AM56 °FPartly sunny.10 mph42%29.63 "Hg10 mi
9:53 AM56 °FScattered clouds.9 mph42%29.63 "Hg10 mi
8:53 AM53 °FScattered clouds.8 mph48%29.64 "Hg10 mi
7:53 AM50 °FPartly sunny.7 mph54%29.64 "Hg10 mi
6:53 AM49 °FPassing clouds.7 mph55%29.64 "Hg10 mi
5:53 AM49 °FOvercast.5 mph55%29.63 "Hg10 mi
4:53 AM49 °FOvercast.3 mph55%29.63 "Hg10 mi
3:53 AM50 °FOvercast.5 mph52%29.63 "Hg10 mi
2:53 AM50 °FOvercast.7 mph50%29.64 "Hg10 mi
1:53 AM51 °FOvercast.9 mph46%29.64 "Hg10 mi
12:53 AM52 °FOvercast.9 mph45%29.65 "Hg10 mi
11:53 PM
Sun, Apr 26
53 °FOvercast.5 mph43%29.65 "Hg10 mi
10:53 PM54 °FOvercast.6 mph40%29.65 "Hg10 mi
9:53 PM55 °FOvercast.6 mph39%29.65 "Hg10 mi
8:53 PM56 °FOvercast.6 mph36%29.65 "Hg10 mi
7:53 PM55 °FOvercast.3 mph37%29.65 "Hg10 mi
6:53 PM57 °FOvercast.7 mph34%29.64 "Hg10 mi
Weather by CustomWeather, © 2015

See weather overviewHow to use our weather pages